This demonstration page uses our WeatherBlox Daily Observations layout. Learn more.

Left ArrowRight Arrow

38.80484, -77.04692

Hourly Observations for November 13, 2020

Temp ( °F °C ) Dew Point ( °F °C ) Humidity (%) Winds ( mph kmh ) Pressure ( in mb ) Visibility ( mi km ) Precip ( " mm )
12:52 am 00:52 Cloudy 51 10.6 42 5.6 71 71 NNE 5 7 30.05 1018 10 16.0934 0 0
1:52 am 01:52 Cloudy 51 10.6 43 6.1 74 74 N 6 9 30.05 1018 10 16.0934 0 0
2:52 am 02:52 Cloudy 50 10 43 6.1 77 77 WNW 3 6 30.06 1018 9 14.48406 0 0
3:52 am 03:52 Cloudy 50 10 43 6.1 77 77 NW 5 7 30.05 1018 10 16.0934 0 0
4:52 am 04:52 Cloudy 50 10 44 6.7 80 80 NNW 8 13 30.04 1017 10 16.0934 0.001 0.001
5:52 am 05:52 Cloudy 49 9.4 44 6.7 83 83 NNW 3 6 30.03 1017 10 16.0934 0 0
6:52 am 06:52 Cloudy 50 10 45 7.2 83 83 NNW 5 7 30.03 1017 10 16.0934 0 0
7:52 am 07:52 Mostly Cloudy 50 10 45 7.2 83 83 Calm 30.03 1017 10 16.0934 0 0
8:38 am 08:38 Mostly Cloudy 52 11.1 45 7.2 77 77 Calm 30.02 1017 10 16.0934 0 0
8:52 am 08:52 Mostly Cloudy 53 11.7 46 7.8 77 77 N 3 6 30.03 1017 10 16.0934 0 0
9:28 am 09:28 Cloudy 53 11.7 45 7.2 74 74 NW 7 11 30.04 1017 10 16.0934 0 0
9:52 am 09:52 Cloudy 53 11.7 45 7.2 74 74 VRB 3 6 30.03 1017 10 16.0934 0 0
10:52 am 10:52 Cloudy 55 12.8 45 7.2 69 69 VRB 3 6 30.02 1017 10 16.0934 0 0
11:12 am 11:12 Mostly Cloudy 55 12.8 45 7.2 69 69 N 8 13 30.02 1017 10 16.0934 0 0
11:32 am 11:32 Mostly Cloudy 57 13.9 46 7.8 67 67 NNW 6 9 30.01 1016 10 16.0934 0 0
11:52 am 11:52 Mostly Cloudy 57 13.9 45 7.2 64 64 NNW 6 9 30 1016 10 16.0934 0 0
12:52 pm 12:52 Partly Cloudy 59 15 45 7.2 60 60 NNW 12 19 30 1016 10 16.0934 0 0
1:52 pm 13:52 Mostly Sunny 61 16.1 43 6.1 52 52 WNW 13 20 29.99 1016 10 16.0934 0 0
2:52 pm 14:52 Mostly Sunny 61 16.1 42 5.6 50 50 NNW 9 15 29.98 1015 10 16.0934 0 0
3:52 pm 15:52 Mostly Sunny 61 16.1 41 5 48 48 NW 10 17 29.99 1016 10 16.0934 0 0
4:52 pm 16:52 Mostly Sunny 58 14.4 41 5 53 53 NNW 8 13 30 1016 10 16.0934 0 0
5:52 pm 17:52 Mostly Clear 55 12.8 39 3.9 55 55 N 7 11 30.02 1017 10 16.0934 0 0
6:52 pm 18:52 Clear 56 13.3 38 3.3 51 51 NW 7 11 30.04 1017 10 16.0934 0 0
7:52 pm 19:52 Clear 57 13.9 36 2.2 45 45 WNW 7 11 30.07 1018 10 16.0934 0 0
8:52 pm 20:52 Clear 53 11.7 37 2.8 55 55 NNW 8 13 30.1 1019 10 16.0934 0 0
9:52 pm 21:52 Clear 54 12.2 36 2.2 51 51 WNW 9 15 30.11 1020 10 16.0934 0 0
10:52 pm 22:52 Clear 51 10.6 35 1.7 54 54 N 5 7 30.12 1020 10 16.0934 0 0
11:52 pm 23:52 Clear 51 10.6 34 1.1 52 52 NNW 3 6 30.12 1020 10 16.0934 0 0

Powered by AerisWeather